El Poble-sec, Spain

8:36 AM CEST on April 29, 2017 (GMT +0200)
El Poble-sec

Weather History for 08181 - September, 2013

Change the Weather History Date:

Wednesday, September 11, 2013

  Actual Average Record
Temperature  
Mean Temperature 65 °F -  
Max Temperature 70 °F 73 °F - ()
Min Temperature 60 °F 60 °F - ()
Growing Degree Days 15 (Base 50)    
Moisture  
Dew Point 61 °F    
Average Humidity 83    
Maximum Humidity 100    
Minimum Humidity 68    
Precipitation  
Precipitation 0.16 in 0.11 in - ()
Sea Level Pressure  
Sea Level Pressure 30.10 in    
Wind  
Wind Speed 9 mph ()    
Max Wind Speed 20 mph    
Max Gust Speed 33 mph    
Visibility 5.9 miles    
Events Fog , Rain , Thunderstorm    
T = Trace of Precipitation, MM = Missing Value Source: Averaged Metar Reports

Daily Weather History Graph

Daily Weather History Graph

Search for Another Location

Airport or City:

Trip Planner

Search our weather history database for the weather conditions in past years. The results will help you decide how hot, cold, wet, or windy it might be!

Date:

Astronomy

Sep. 11, 2013 Rise Set
Actual Time 7:28 AM CEST 8:07 PM CEST
Civil Twilight 7:00 AM CEST 8:35 PM CEST
Nautical Twilight 6:27 AM CEST 9:08 PM CEST
Astronomical Twilight 5:53 AM CEST 9:42 PM CEST
Moon 1:44 PM CEST (9/11) 11:45 PM CEST (9/11)
Length of Visible Light 13h 35m
Length of Day
12h 39m
Waxing Crescent, 36% of the Moon is Illuminated
Sep 11
Waxing Crescent
Sep 12
First Quarter
Sep 19
Full
Sep 27
Last Quarter
Oct 5
New

Hourly Weather History & Observations

Time (CEST) Temp. Dew Point Humidity Pressure Visibility Wind Dir Wind Speed Gust Speed Precip Events Conditions
12:00 AM 73.4 °F 66.2 °F 78% 30.06 in 6.2 mi ENE 12.7 mph - N/A   Scattered Clouds
12:30 AM 71.6 °F 66.2 °F 83% 30.06 in 6.2 mi ENE 11.5 mph - N/A Thunderstorm Scattered Clouds
1:00 AM 71.6 °F 66.2 °F 83% 30.06 in 6.2 mi East 16.1 mph - N/A   Scattered Clouds
1:23 AM 69.8 °F 62.6 °F 78% 30.04 in 4.3 mi East 18.4 mph - N/A Rain , Thunderstorm Thunderstorms and Rain
1:30 AM 68.0 °F 62.6 °F 83% 30.06 in 3.1 mi East 19.6 mph - N/A Rain , Thunderstorm Thunderstorms and Rain
2:00 AM 69 °F 69 °F 100% 30.09 in 5 mi ENE 10.4 mph - - Rain , Thunderstorm Thunderstorms and Rain
2:00 AM 69.8 °F 62.6 °F 78% 30.09 in 4.3 mi NE 12.7 mph - N/A Rain , Thunderstorm Light Thunderstorms and Rain
2:30 AM 69.8 °F 62.6 °F 78% 30.06 in 6.2 mi East 15.0 mph - N/A   Scattered Clouds
3:00 AM 69.8 °F 62.6 °F 78% 30.06 in 6.2 mi ENE 11.5 mph - N/A   Scattered Clouds
3:30 AM 68.0 °F 62.6 °F 83% 30.06 in 6.2 mi NNE 11.5 mph - N/A Rain Light Rain
4:00 AM 68.0 °F 62.6 °F 83% 30.06 in 6.2 mi NE 8.1 mph - N/A   Scattered Clouds
4:30 AM 68.0 °F 62.6 °F 83% 30.06 in 6.2 mi NNE 5.8 mph - N/A   Scattered Clouds
5:00 AM 68.0 °F 62.6 °F 83% 30.06 in 6.2 mi North 5.8 mph - N/A   Scattered Clouds
5:30 AM 66.2 °F 62.6 °F 88% 30.06 in 6.2 mi NNE 4.6 mph - N/A   Scattered Clouds
6:00 AM 66.2 °F 62.6 °F 88% 30.06 in 6.2 mi North 2.3 mph - N/A   Partly Cloudy
6:30 AM 66.2 °F 62.6 °F 88% 30.06 in 6.2 mi NNW 4.6 mph - N/A   Partly Cloudy
7:00 AM 66.2 °F 62.6 °F 88% 30.06 in 6.2 mi NNW 5.8 mph - N/A   Scattered Clouds
7:30 AM 66.2 °F 62.6 °F 88% 30.06 in 6.2 mi North 4.6 mph - N/A   Scattered Clouds
8:00 AM 66.2 °F 62.6 °F 88% 30.09 in 6.2 mi North 5.8 mph - N/A   Mostly Cloudy
8:30 AM 66.2 °F 62.6 °F 88% 30.09 in 6.2 mi NNE 8.1 mph - N/A   Mostly Cloudy
9:00 AM 66.2 °F 57.2 °F 73% 30.12 in 6.2 mi NNW 8.1 mph - N/A Rain Light Rain
9:30 AM 64.4 °F 55.4 °F 73% 30.12 in 6.2 mi NNW 11.5 mph - N/A Rain Light Rain
10:00 AM 62.6 °F 57.2 °F 82% 30.12 in 5.0 mi North 9.2 mph 20.7 mph N/A Rain Light Rain
10:11 AM 62.6 °F 57.2 °F 82% 30.15 in 1.9 mi NW 9.2 mph - N/A Rain Heavy Rain Showers
10:30 AM 62.6 °F 57.2 °F 82% 30.15 in 4.3 mi NW 8.1 mph - N/A Rain Light Rain Showers
11:00 AM 62.6 °F 57.2 °F 82% 30.15 in 5.0 mi NNW 10.4 mph - N/A Rain Light Rain
11:30 AM 60.8 °F 57.2 °F 88% 30.15 in 6.2 mi NNW 11.5 mph - N/A Rain Light Rain
12:00 PM 60.8 °F 57.2 °F 88% 30.15 in 6.2 mi NNW 11.5 mph - N/A   Mostly Cloudy
12:30 PM 60.8 °F 57.2 °F 88% 30.15 in 6.2 mi NNW 12.7 mph - N/A   Mostly Cloudy
1:00 PM 60.8 °F 59.0 °F 94% 30.15 in 4.3 mi NW 12.7 mph 33.4 mph N/A Rain Light Rain
1:30 PM 60.8 °F 59.0 °F 94% 30.15 in 3.7 mi NW 12.7 mph - N/A   Drizzle
2:00 PM 61 °F 61 °F 100% 30.15 in 5 mi NNW 9.2 mph - - Rain Light Drizzle
2:00 PM 60.8 °F 60.8 °F 100% 30.12 in 5.0 mi NNW 9.2 mph - N/A Fog Light Drizzle
2:30 PM 62.6 °F 60.8 °F 94% 30.15 in 3.1 mi NW 6.9 mph - N/A Fog Drizzle
3:00 PM 62.6 °F 60.8 °F 94% 30.12 in 3.7 mi NW 6.9 mph - N/A Rain Light Rain
3:30 PM 62.6 °F 62.6 °F 100% 30.12 in 5.0 mi East 4.6 mph - N/A Rain Light Rain
4:00 PM 64.4 °F 60.8 °F 88% 30.12 in 6.2 mi South 4.6 mph - N/A   Mostly Cloudy
4:30 PM 66.2 °F 62.6 °F 88% 30.09 in 6.2 mi South 6.9 mph - N/A   Mostly Cloudy
5:00 PM 68.0 °F 62.6 °F 83% 30.09 in 6.2 mi SSW 4.6 mph - N/A   Mostly Cloudy
5:30 PM 69.8 °F 62.6 °F 78% 30.09 in 6.2 mi South 5.8 mph - N/A   Scattered Clouds
6:00 PM 69.8 °F 60.8 °F 73% 30.09 in 6.2 mi South 5.8 mph - N/A   Scattered Clouds
6:30 PM 69.8 °F 60.8 °F 73% 30.09 in 6.2 mi South 8.1 mph - N/A   Partly Cloudy
7:00 PM 69.8 °F 62.6 °F 78% 30.09 in 6.2 mi South 6.9 mph - N/A   Partly Cloudy
7:30 PM 69.8 °F 60.8 °F 73% 30.06 in 6.2 mi South 5.8 mph - N/A   Partly Cloudy
8:00 PM 69 °F 64 °F 80% 30.10 in 19 mi SSE 3.5 mph - -   Partly Cloudy
8:00 PM 69.8 °F 60.8 °F 73% 30.09 in 6.2 mi South 3.5 mph - N/A   Scattered Clouds
8:30 PM 69.8 °F 60.8 °F 73% 30.09 in 6.2 mi SSE 4.6 mph - N/A   Mostly Cloudy
9:00 PM 69.8 °F 60.8 °F 73% 30.09 in 6.2 mi South 5.8 mph - N/A   Scattered Clouds
9:30 PM 69.8 °F 59.0 °F 68% 30.12 in 6.2 mi SE 3.5 mph - N/A   Scattered Clouds
10:00 PM 69.8 °F 59.0 °F 68% 30.12 in 6.2 mi SE 3.5 mph - N/A   Scattered Clouds
10:30 PM 69.8 °F 59.0 °F 68% 30.12 in 6.2 mi SE 2.3 mph - N/A   Scattered Clouds
11:00 PM 69.8 °F 59.0 °F 68% 30.12 in 6.2 mi SE 3.5 mph - N/A   Mostly Cloudy
11:30 PM 66.2 °F 62.6 °F 88% 30.12 in 6.2 mi Variable 2.3 mph - N/A   Mostly Cloudy